User: anonymous   Login
Location: Godiavel Galaoual
(15.2485°N, 12.6604°W)
Time: 12:09:25
(UTC+00:00)
Language:

AO-7 - Orbit

View from above orbital plane
View from above orbital plane
View from above satellite
View from above satellite

Ground track
Ground track

The orbit data is extracted from the following two-line orbital elements,

1  7530U 74089B   21212.21008476 -.00000037  00000-0  56314-4 0  9993
2  7530 101.8567 186.6717 0011924 299.7893  71.3234 12.53649572137459
Epoch (UTC): 31 July 2021 05:02:31
Eccentricity: 0.0011924
inclination: 101.8567°
perigee height: 1440 km
apogee height: 1458 km
right ascension of ascending node: 186.6717°
argument of perigee: 299.7893°
revolutions per day: 12.53649572
mean anomaly at epoch: 71.3234°
orbit number at epoch: 13745

The dashed part of the orbit path shows where the satellite is in the earth's shadow,  

DLR